Station Historical Data
Daily Summary for May 13, 2017 Units:  Metric    English   Both
« Previous Day
Next Day »
Daily Weekly Monthly Yearly Custom
  High: Low: Average:
Temperature: 16.1 °C 10.2 °C 13.1 °C
Dew Point: 9.6 °C 6.3 °C 7.5 °C
Humidity: 78% 58% 69%
Wind Speed: 14.5km/h 0km/h 4km/h
Wind Gust: 19.3km/h - -
Wind- - SW
Pressure: 1012.4 hPa 1008 hPa -
Precipitation: 0 mm    
Historical Graphs
 
 
Tabular Data for May 13, 2017
Time Temperature Dew Point Pressure Wind Wind Speed Wind Gust Humidity Rainfall Rate (Hourly)
00:04 12.8 °C 6.6 °C 1012.4 hPa South 1.6 km/h 6.4 km/h 66% 0 mm
00:09 12.8 °C 6.6 °C 1012.1 hPa Calm   4.8 km/h 66% 0 mm
00:14 12.8 °C 6.4 °C 1012.4 hPa South 1.6 km/h 6.4 km/h 65% 0 mm
00:19 12.8 °C 6.4 °C 1012.4 hPa South 1.6 km/h 6.4 km/h 65% 0 mm
00:24 12.8 °C 6.4 °C 1012.4 hPa South 3.2 km/h 4.8 km/h 65% 0 mm
00:29 12.8 °C 6.3 °C 1012.4 hPa Calm   6.4 km/h 65% 0 mm
00:34 12.8 °C 6.3 °C 1012.4 hPa South 1.6 km/h 6.4 km/h 65% 0 mm
00:39 12.8 °C 6.3 °C 1012.4 hPa South 3.2 km/h 4.8 km/h 65% 0 mm
00:44 12.7 °C 6.5 °C 1012.1 hPa South 1.6 km/h 4.8 km/h 66% 0 mm
00:49 12.7 °C 6.5 °C 1012.1 hPa South 1.6 km/h 8 km/h 66% 0 mm
00:54 12.7 °C 6.5 °C 1012.1 hPa South 3.2 km/h 8 km/h 66% 0 mm
00:59 12.7 °C 6.7 °C 1012.1 hPa South 1.6 km/h 4.8 km/h 67% 0 mm
01:04 12.6 °C 6.4 °C 1012.1 hPa South 1.6 km/h 4.8 km/h 66% 0 mm
01:09 12.6 °C 6.7 °C 1012.1 hPa South 1.6 km/h 4.8 km/h 67% 0 mm
01:14 12.6 °C 6.7 °C 1012.1 hPa Calm   1.6 km/h 67% 0 mm
01:19 12.6 °C 6.6 °C 1012.1 hPa Calm   4.8 km/h 67% 0 mm
01:24 12.6 °C 6.6 °C 1012.1 hPa Calm   4.8 km/h 67% 0 mm
01:29 12.5 °C 6.6 °C 1012.1 hPa Calm     67% 0 mm
01:34 12.5 °C 6.8 °C 1012.1 hPa Calm   4.8 km/h 68% 0 mm
01:39 12.4 °C 6.7 °C 1012.1 hPa Calm   3.2 km/h 68% 0 mm
01:44 12.4 °C 6.7 °C 1012.1 hPa Calm     68% 0 mm
01:49 12.3 °C 6.6 °C 1012.1 hPa Calm     68% 0 mm
01:54 12.3 °C 6.8 °C 1011.7 hPa Calm     69% 0 mm
01:59 12.3 °C 6.8 °C 1011.7 hPa Calm     69% 0 mm
02:04 12.3 °C 6.8 °C 1011.7 hPa Calm   3.2 km/h 69% 0 mm
02:09 12.2 °C 6.7 °C 1011.7 hPa South 1.6 km/h 4.8 km/h 69% 0 mm
02:14 12.2 °C 6.7 °C 1011.7 hPa South 1.6 km/h 4.8 km/h 69% 0 mm
02:19 12.1 °C 6.8 °C 1011.7 hPa South 1.6 km/h 4.8 km/h 70% 0 mm
02:24 12.1 °C 6.8 °C 1011.7 hPa South 1.6 km/h 6.4 km/h 70% 0 mm
02:29 12.1 °C 6.7 °C 1011.7 hPa South 1.6 km/h 6.4 km/h 70% 0 mm
02:34 12 °C 6.7 °C 1011.7 hPa Calm   3.2 km/h 70% 0 mm
02:39 12 °C 6.9 °C 1011.7 hPa South 1.6 km/h 3.2 km/h 71% 0 mm
02:44 11.9 °C 6.8 °C 1011.4 hPa Calm   3.2 km/h 71% 0 mm
02:49 12 °C 6.9 °C 1011.4 hPa Calm   4.8 km/h 71% 0 mm
02:54 11.9 °C 6.8 °C 1011.4 hPa Calm   4.8 km/h 71% 0 mm
02:59 11.9 °C 6.8 °C 1011.4 hPa Calm   1.6 km/h 71% 0 mm
03:04 11.9 °C 6.8 °C 1011.4 hPa SSW 3.2 km/h 3.2 km/h 71% 0 mm
03:09 11.9 °C 6.8 °C 1011.4 hPa Calm   3.2 km/h 71% 0 mm
03:14 11.9 °C 6.8 °C 1011.4 hPa Calm     71% 0 mm
03:19 11.9 °C 6.8 °C 1011.4 hPa Calm   3.2 km/h 71% 0 mm
03:24 11.9 °C 6.8 °C 1011.4 hPa Calm   3.2 km/h 71% 0 mm
03:29 11.8 °C 6.7 °C 1011.4 hPa South 1.6 km/h 4.8 km/h 71% 0 mm
03:34 11.8 °C 6.7 °C 1011.4 hPa South 1.6 km/h 4.8 km/h 71% 0 mm
03:39 11.8 °C 6.9 °C 1011.4 hPa South 1.6 km/h 4.8 km/h 72% 0 mm
03:44 11.8 °C 6.9 °C 1011.4 hPa South 1.6 km/h 4.8 km/h 72% 0 mm
03:49 11.8 °C 6.9 °C 1011.4 hPa SSW 4.8 km/h 8 km/h 72% 0 mm
03:54 11.8 °C 7.1 °C 1011.4 hPa SSW 3.2 km/h 6.4 km/h 73% 0 mm
03:59 11.8 °C 7.1 °C 1011.4 hPa SSW 1.6 km/h 4.8 km/h 73% 0 mm
04:04 11.8 °C 7.1 °C 1011.4 hPa Calm   8 km/h 73% 0 mm
04:09 11.8 °C 7.1 °C 1011.1 hPa SSE 3.2 km/h 9.7 km/h 73% 0 mm
04:14 11.7 °C 7.1 °C 1011.1 hPa SSE 4.8 km/h 9.7 km/h 73% 0 mm
04:19 11.7 °C 7.2 °C 1011.1 hPa SSE 3.2 km/h 8 km/h 74% 0 mm
04:24 11.7 °C 7.2 °C 1011.1 hPa SSE 1.6 km/h 6.4 km/h 74% 0 mm
04:29 11.7 °C 7.2 °C 1011.1 hPa South 3.2 km/h 8 km/h 74% 0 mm
04:34 11.7 °C 7.2 °C 1011.1 hPa SSE 1.6 km/h 8 km/h 74% 0 mm
04:39 11.6 °C 7.1 °C 1011.1 hPa SSE 3.2 km/h 4.8 km/h 74% 0 mm
04:44 11.6 °C 7.3 °C 1011.1 hPa SSE 1.6 km/h 8 km/h 75% 0 mm
04:49 11.6 °C 7.3 °C 1011.1 hPa South 3.2 km/h 8 km/h 75% 0 mm
04:54 11.6 °C 7.3 °C 1011.1 hPa SSE 3.2 km/h 9.7 km/h 75% 0 mm
04:59 11.6 °C 7.3 °C 1011.1 hPa SSE 1.6 km/h 8 km/h 75% 0 mm
05:04 11.5 °C 7.4 °C 1011.1 hPa SSE 1.6 km/h 4.8 km/h 76% 0 mm
05:09 11.4 °C 7.3 °C 1011.1 hPa Calm   4.8 km/h 76% 0 mm
05:14 11.4 °C 7.3 °C 1011.1 hPa SSE 1.6 km/h 8 km/h 76% 0 mm
05:19 11.4 °C 7.3 °C 1011.1 hPa SSE 3.2 km/h 8 km/h 76% 0 mm
05:24 11.4 °C 7.3 °C 1011.1 hPa SSE 3.2 km/h 6.4 km/h 76% 0 mm
05:29 11.3 °C 7.3 °C 1011.1 hPa SSE 3.2 km/h 6.4 km/h 76% 0 mm
05:34 11.3 °C 7.3 °C 1011.1 hPa SSE 3.2 km/h 8 km/h 76% 0 mm
05:39 11.3 °C 7.3 °C 1011.1 hPa Calm   6.4 km/h 76% 0 mm
05:44 11.3 °C 7.4 °C 1011.1 hPa SSE 1.6 km/h 6.4 km/h 77% 0 mm
05:49 11.3 °C 7.4 °C 1011.1 hPa SE 1.6 km/h 6.4 km/h 77% 0 mm
05:54 11.3 °C 7.4 °C 1011.1 hPa SSE 1.6 km/h 6.4 km/h 77% 0 mm
05:59 11.2 °C 7.3 °C 1011.1 hPa South 4.8 km/h 4.8 km/h 77% 0 mm
06:04 11.3 °C 7.4 °C 1011.1 hPa South 1.6 km/h 4.8 km/h 77% 0 mm
06:09 11.2 °C 7.3 °C 1011.1 hPa South 3.2 km/h 8 km/h 77% 0 mm
06:14 11.2 °C 7.3 °C 1011.1 hPa South 3.2 km/h 8 km/h 77% 0 mm
06:19 11.2 °C 7.3 °C 1011.1 hPa SSE 1.6 km/h 8 km/h 77% 0 mm
06:24 11.3 °C 7.4 °C 1011.1 hPa SSE 3.2 km/h 6.4 km/h 77% 0 mm
06:29 11.2 °C 7.3 °C 1011.4 hPa SSE 1.6 km/h 4.8 km/h 77% 0 mm
06:34 11.3 °C 7.4 °C 1011.4 hPa Calm   8 km/h 77% 0 mm
06:39 11.2 °C 7.3 °C 1011.4 hPa SSE 1.6 km/h 8 km/h 77% 0 mm
06:44 11.2 °C 7.3 °C 1011.4 hPa Calm   4.8 km/h 77% 0 mm
06:49 11.2 °C 7.3 °C 1011.4 hPa SSE 1.6 km/h 4.8 km/h 77% 0 mm
06:54 11.3 °C 7.4 °C 1011.4 hPa SSE 1.6 km/h 4.8 km/h 77% 0 mm
06:59 11.3 °C 7.6 °C 1011.4 hPa South 3.2 km/h 8 km/h 78% 0 mm
07:04 11.3 °C 7.6 °C 1011.4 hPa South 3.2 km/h 8 km/h 78% 0 mm
07:09 11.3 °C 7.6 °C 1011.4 hPa SSW 1.6 km/h 6.4 km/h 78% 0 mm
07:14 11.3 °C 7.6 °C 1011.4 hPa South 1.6 km/h 6.4 km/h 78% 0 mm
07:19 11.3 °C 7.6 °C 1011.4 hPa Calm   8 km/h 78% 0 mm
07:24 11.3 °C 7.6 °C 1011.4 hPa South 1.6 km/h 8 km/h 78% 0 mm
07:29 11.4 °C 7.7 °C 1011.4 hPa Calm   1.6 km/h 78% 0 mm
07:34 11.4 °C 7.6 °C 1011.4 hPa SSW 4.8 km/h 6.4 km/h 77% 0 mm
07:39 11.5 °C 7.8 °C 1011.4 hPa SSW 1.6 km/h 6.4 km/h 78% 0 mm
07:44 11.6 °C 7.7 °C 1011.4 hPa SSW 1.6 km/h 6.4 km/h 77% 0 mm
07:49 11.7 °C 7.8 °C 1011.4 hPa SSW 1.6 km/h 6.4 km/h 77% 0 mm
07:54 11.7 °C 7.8 °C 1011.4 hPa SW 3.2 km/h 6.4 km/h 77% 0 mm
07:59 11.8 °C 7.9 °C 1011.4 hPa SSW 4.8 km/h 9.7 km/h 77% 0 mm
08:04 11.8 °C 7.9 °C 1011.4 hPa SSW 3.2 km/h 9.7 km/h 77% 0 mm
08:09 11.9 °C 8 °C 1011.4 hPa SSW 3.2 km/h 9.7 km/h 77% 0 mm
08:14 11.9 °C 8 °C 1011.4 hPa SSW 3.2 km/h 8 km/h 77% 0 mm
08:19 11.9 °C 8 °C 1011.1 hPa South 4.8 km/h 9.7 km/h 77% 0 mm
08:24 11.9 °C 8 °C 1011.1 hPa South 4.8 km/h 9.7 km/h 77% 0 mm
08:29 12 °C 8.1 °C 1011.4 hPa SSW 1.6 km/h 6.4 km/h 77% 0 mm
08:34 12.1 °C 8.2 °C 1011.4 hPa SSW 3.2 km/h 9.7 km/h 77% 0 mm
08:39 12.2 °C 8.3 °C 1011.1 hPa South 6.4 km/h 9.7 km/h 77% 0 mm
08:44 12.3 °C 8.3 °C 1011.1 hPa South 3.2 km/h 9.7 km/h 77% 0 mm
08:49 12.3 °C 8.2 °C 1011.1 hPa SSW 3.2 km/h 9.7 km/h 76% 0 mm
08:54 12.3 °C 8.2 °C 1011.4 hPa SW 8 km/h 9.7 km/h 76% 0 mm
08:59 12.3 °C 8.2 °C 1011.4 hPa WSW 4.8 km/h 8 km/h 76% 0 mm
09:04 12.3 °C 8.3 °C 1011.4 hPa SW 4.8 km/h 11.3 km/h 77% 0 mm
09:09 12.3 °C 8.4 °C 1011.4 hPa SW 4.8 km/h 11.3 km/h 77% 0 mm
09:14 12.4 °C 8.4 °C 1011.4 hPa SSW 4.8 km/h 8 km/h 77% 0 mm
09:19 12.4 °C 8.3 °C 1011.4 hPa SSW 4.8 km/h 11.3 km/h 76% 0 mm
09:24 12.4 °C 8.3 °C 1011.4 hPa SW 3.2 km/h 11.3 km/h 76% 0 mm
09:29 12.4 °C 8.3 °C 1011.4 hPa Calm   4.8 km/h 76% 0 mm
09:34 12.6 °C 8.2 °C 1011.4 hPa SW 6.4 km/h 8 km/h 75% 0 mm
09:39 12.6 °C 8.2 °C 1011.4 hPa West 6.4 km/h 9.7 km/h 75% 0 mm
09:44 12.6 °C 8.2 °C 1011.4 hPa SSW 4.8 km/h 11.3 km/h 75% 0 mm
09:49 12.6 °C 8.3 °C 1011.4 hPa SW 4.8 km/h 8 km/h 75% 0 mm
09:54 12.7 °C 8.4 °C 1011.4 hPa SW 8 km/h 9.7 km/h 75% 0 mm
09:59 12.7 °C 8.2 °C 1011.4 hPa SW 4.8 km/h 11.3 km/h 74% 0 mm
10:04 12.8 °C 8.3 °C 1011.4 hPa WSW 4.8 km/h 11.3 km/h 74% 0 mm
10:09 12.8 °C 8.4 °C 1011.4 hPa WSW 4.8 km/h 11.3 km/h 75% 0 mm
10:14 12.7 °C 8.2 °C 1011.7 hPa SW 6.4 km/h 12.9 km/h 74% 0 mm
10:19 12.7 °C 8.2 °C 1011.7 hPa SW 6.4 km/h 12.9 km/h 74% 0 mm
10:24 12.6 °C 8.3 °C 1011.7 hPa Calm   11.3 km/h 75% 0 mm
10:29 12.7 °C 8.2 °C 1011.4 hPa SSW 4.8 km/h 11.3 km/h 74% 0 mm
10:34 12.8 °C 8.1 °C 1011.4 hPa WSW 4.8 km/h 11.3 km/h 73% 0 mm
10:39 12.9 °C 8.4 °C 1011.4 hPa West 4.8 km/h 9.7 km/h 74% 0 mm
10:44 12.9 °C 8.2 °C 1011.4 hPa WSW 4.8 km/h 11.3 km/h 73% 0 mm
10:49 13.2 °C 8.7 °C 1011.4 hPa WSW 4.8 km/h 11.3 km/h 74% 0 mm
10:54 13.3 °C 8.4 °C 1011.4 hPa SW 4.8 km/h 12.9 km/h 72% 0 mm
10:59 13.2 °C 8.3 °C 1011.4 hPa SW 1.6 km/h 11.3 km/h 72% 0 mm
11:04 13.4 °C 8.1 °C 1011.4 hPa West 4.8 km/h 12.9 km/h 70% 0 mm
11:09 14.3 °C 8.7 °C 1011.4 hPa WSW 4.8 km/h 12.9 km/h 69% 0 mm
11:14 14.6 °C 8.5 °C 1011.4 hPa West 6.4 km/h 12.9 km/h 67% 0 mm
11:19 14.3 °C 7.8 °C 1011.4 hPa West 1.6 km/h 14.5 km/h 65% 0 mm
11:24 14.3 °C 8 °C 1011.1 hPa WSW 11.3 km/h 17.7 km/h 66% 0 mm
11:29 14.3 °C 8 °C 1011.1 hPa WSW 6.4 km/h 11.3 km/h 66% 0 mm
11:34 14.6 °C 8.3 °C 1011.1 hPa WSW 8 km/h 16.1 km/h 66% 0 mm
11:39 14 °C 7.7 °C 1011.1 hPa WSW 8 km/h 16.1 km/h 66% 0 mm
11:44 13.8 °C 7.6 °C 1011.1 hPa WSW 6.4 km/h 12.9 km/h 66% 0 mm
11:49 13.6 °C 7.6 °C 1011.1 hPa WSW 6.4 km/h 12.9 km/h 67% 0 mm
11:54 13.6 °C 7.4 °C 1011.1 hPa SW 8 km/h 11.3 km/h 66% 0 mm
11:59 13.6 °C 7.6 °C 1011.1 hPa WSW 8 km/h 16.1 km/h 67% 0 mm
12:04 13.6 °C 7.6 °C 1011.1 hPa SW 8 km/h 16.1 km/h 67% 0 mm
12:09 13.6 °C 7.6 °C 1011.1 hPa SW 8 km/h 12.9 km/h 67% 0 mm
12:14 14 °C 8.2 °C 1011.1 hPa SW 8 km/h 12.9 km/h 68% 0 mm
12:19 14.8 °C 8.3 °C 1010.7 hPa WSW 6.4 km/h 12.9 km/h 65% 0 mm
12:24 15.2 °C 8.4 °C 1010.7 hPa SW 4.8 km/h 12.9 km/h 64% 0 mm
12:29 15.6 °C 8.3 °C 1010.7 hPa SW 4.8 km/h 14.5 km/h 62% 0 mm
12:34 15.6 °C 8.6 °C 1010.7 hPa WSW 8 km/h 14.5 km/h 63% 0 mm
12:39 15.4 °C 8.2 °C 1010.7 hPa WSW 8 km/h 17.7 km/h 62% 0 mm
12:44 15.9 °C 9.6 °C 1010.7 hPa SW 11.3 km/h 14.5 km/h 66% 0 mm
12:49 15.9 °C 8.4 °C 1010.7 hPa WNW 4.8 km/h 19.3 km/h 61% 0 mm
12:54 15.6 °C 7.9 °C 1010.7 hPa WSW 4.8 km/h 16.1 km/h 60% 0 mm
12:59 15.7 °C 8 °C 1010.7 hPa WSW 6.4 km/h 11.3 km/h 60% 0 mm
13:04 15.9 °C 8.2 °C 1010.7 hPa WSW 6.4 km/h 12.9 km/h 60% 0 mm
13:09 16.1 °C 8.6 °C 1010.7 hPa SW 6.4 km/h 16.1 km/h 61% 0 mm
13:14 16 °C 8.2 °C 1010.7 hPa SW 6.4 km/h 16.1 km/h 60% 0 mm
13:19 15.7 °C 7.9 °C 1010.7 hPa SW 6.4 km/h 14.5 km/h 60% 0 mm
13:24 15.3 °C 8.3 °C 1010.7 hPa WSW 8 km/h 17.7 km/h 63% 0 mm
13:29 15.3 °C 8.5 °C 1010.7 hPa WSW 6.4 km/h 14.5 km/h 64% 0 mm
13:34 15.4 °C 8.2 °C 1010.7 hPa SW 6.4 km/h 14.5 km/h 62% 0 mm
13:39 15.5 °C 8 °C 1010.7 hPa SSW 6.4 km/h 17.7 km/h 61% 0 mm
13:44 15.3 °C 8.1 °C 1010.7 hPa SW 1.6 km/h 16.1 km/h 62% 0 mm
13:49 15.3 °C 8.3 °C 1010.7 hPa WSW 9.7 km/h 14.5 km/h 63% 0 mm
13:54 15.2 °C 8 °C 1010.4 hPa WSW 4.8 km/h 12.9 km/h 62% 0 mm
13:59 15.2 °C 7.7 °C 1010.4 hPa WSW 6.4 km/h 16.1 km/h 61% 0 mm
14:04 15.1 °C 7.8 °C 1010.4 hPa SW 8 km/h 16.1 km/h 62% 0 mm
14:09 14.9 °C 7.9 °C 1010.4 hPa SW 8 km/h 17.7 km/h 63% 0 mm
14:14 14.9 °C 8.1 °C 1010.4 hPa SW 8 km/h 17.7 km/h 64% 0 mm
14:19 14.9 °C 8.1 °C 1010.4 hPa SW 6.4 km/h 16.1 km/h 64% 0 mm
14:24 14.9 °C 7.9 °C 1010.4 hPa West 6.4 km/h 16.1 km/h 63% 0 mm
14:29 15 °C 8 °C 1010.4 hPa SW 6.4 km/h 16.1 km/h 63% 0 mm
14:34 14.9 °C 7.9 °C 1010.4 hPa WSW 9.7 km/h 17.7 km/h 63% 0 mm
14:39 14.9 °C 8.2 °C 1010.4 hPa SW 14.5 km/h 19.3 km/h 64% 0 mm
14:44 14.9 °C 8.1 °C 1010.4 hPa WNW 4.8 km/h 16.1 km/h 64% 0 mm
14:49 14.8 °C 7.8 °C 1010 hPa WSW 6.4 km/h 14.5 km/h 63% 0 mm
14:54 14.7 °C 8.2 °C 1010 hPa WSW 12.9 km/h 14.5 km/h 65% 0 mm
14:59 14.6 °C 7.9 °C 1010 hPa SW 6.4 km/h 12.9 km/h 64% 0 mm
15:04 14.6 °C 8.3 °C 1010 hPa WSW 6.4 km/h 12.9 km/h 66% 0 mm
15:09 14.7 °C 8.4 °C 1010 hPa SW 6.4 km/h 12.9 km/h 66% 0 mm
15:14 14.8 °C 8.3 °C 1010 hPa SSW 6.4 km/h 14.5 km/h 65% 0 mm
15:19 15.2 °C 9.1 °C 1010 hPa SW 4.8 km/h 12.9 km/h 67% 0 mm
15:24 15.2 °C 8.7 °C 1009.7 hPa WSW 4.8 km/h 14.5 km/h 65% 0 mm
15:29 14.9 °C 8.4 °C 1009.7 hPa WSW 9.7 km/h 14.5 km/h 65% 0 mm
15:34 15.3 °C 8.7 °C 1009.7 hPa WSW 8 km/h 14.5 km/h 65% 0 mm
15:39 15.6 °C 8.6 °C 1009.7 hPa WSW 8 km/h 16.1 km/h 63% 0 mm
15:44 15.8 °C 9.1 °C 1009.7 hPa SW 9.7 km/h 16.1 km/h 64% 0 mm
15:49 15.8 °C 8.5 °C 1009.7 hPa SW 9.7 km/h 16.1 km/h 62% 0 mm
15:54 15.7 °C 8.2 °C 1009.4 hPa SW 8 km/h 16.1 km/h 61% 0 mm
15:59 15.4 °C 8.2 °C 1009.7 hPa South 11.3 km/h 12.9 km/h 62% 0 mm
16:04 14.9 °C 8.2 °C 1009.7 hPa SSE 3.2 km/h 11.3 km/h 64% 0 mm
16:09 14.7 °C 7.7 °C 1009.4 hPa WSW 4.8 km/h 12.9 km/h 63% 0 mm
16:14 14.8 °C 8.3 °C 1009.4 hPa WSW 4.8 km/h 16.1 km/h 65% 0 mm
16:19 15.5 °C 8.5 °C 1009.4 hPa SW 8 km/h 16.1 km/h 63% 0 mm
16:24 15.7 °C 8.9 °C 1009.4 hPa WSW 6.4 km/h 12.9 km/h 64% 0 mm
16:29 15.6 °C 8.1 °C 1009.4 hPa West 8 km/h 14.5 km/h 61% 0 mm
16:34 15.6 °C 7.8 °C 1009.4 hPa WSW 8 km/h 16.1 km/h 60% 0 mm
16:39 15.6 °C 7.8 °C 1009.4 hPa WSW 8 km/h 16.1 km/h 60% 0 mm
16:44 15.5 °C 8.2 °C 1009.4 hPa SW 8 km/h 14.5 km/h 62% 0 mm
16:49 15.8 °C 8.3 °C 1009.4 hPa SW 8 km/h 16.1 km/h 61% 0 mm
16:54 15.8 °C 8.3 °C 1009.4 hPa SSW 11.3 km/h 17.7 km/h 61% 0 mm
16:59 15.8 °C 7.8 °C 1009.4 hPa WSW 8 km/h 16.1 km/h 59% 0 mm
17:04 15.7 °C 7.9 °C 1009.4 hPa SW 8 km/h 16.1 km/h 60% 0 mm
17:09 15.7 °C 7.7 °C 1009.4 hPa WSW 6.4 km/h 12.9 km/h 59% 0 mm
17:14 15.7 °C 7.9 °C 1009.4 hPa SW 8 km/h 12.9 km/h 60% 0 mm
17:19 15.7 °C 8.2 °C 1009.4 hPa SSW 4.8 km/h 14.5 km/h 61% 0 mm
17:24 16 °C 8.2 °C 1009.4 hPa South 6.4 km/h 12.9 km/h 60% 0 mm
17:29 16.1 °C 8.1 °C 1009.4 hPa WSW 8 km/h 12.9 km/h 59% 0 mm
17:34 15.9 °C 7.9 °C 1009.4 hPa SW 6.4 km/h 14.5 km/h 59% 0 mm
17:39 15.9 °C 7.9 °C 1009.4 hPa SSW 8 km/h 14.5 km/h 59% 0 mm
17:44 15.8 °C 7.8 °C 1009.4 hPa SSW 4.8 km/h 12.9 km/h 59% 0 mm
17:49 15.7 °C 7.5 °C 1009.4 hPa SW 6.4 km/h 12.9 km/h 58% 0 mm
17:54 15.7 °C 7.7 °C 1009 hPa SW 6.4 km/h 9.7 km/h 59% 0 mm
17:59 15.7 °C 7.4 °C 1009 hPa SW 8 km/h 14.5 km/h 58% 0 mm
18:04 15.6 °C 7.6 °C 1009.4 hPa SW 8 km/h 17.7 km/h 59% 0 mm
18:09 15.4 °C 7.4 °C 1009.4 hPa SW 8 km/h 17.7 km/h 59% 0 mm
18:14 15.3 °C 7.3 °C 1009 hPa SW 8 km/h 16.1 km/h 59% 0 mm
18:19 15.1 °C 7.4 °C 1009.4 hPa SW 8 km/h 16.1 km/h 60% 0 mm
18:24 15 °C 7.6 °C 1009.4 hPa WSW 9.7 km/h 11.3 km/h 61% 0 mm
18:29 15 °C 7.8 °C 1009 hPa WSW 4.8 km/h 11.3 km/h 62% 0 mm
18:34 15.1 °C 7.9 °C 1009 hPa SW 3.2 km/h 11.3 km/h 62% 0 mm
18:39 15.2 °C 7.9 °C 1009 hPa West 3.2 km/h 11.3 km/h 62% 0 mm
18:44 15.2 °C 7.5 °C 1009.4 hPa SW 8 km/h 16.1 km/h 60% 0 mm
18:49 15.1 °C 7.6 °C 1009.4 hPa West 4.8 km/h 16.1 km/h 61% 0 mm
18:54 14.8 °C 7.1 °C 1009.4 hPa West 4.8 km/h 19.3 km/h 60% 0 mm
18:59 14.5 °C 7.1 °C 1009 hPa WSW 8 km/h 19.3 km/h 61% 0 mm
19:04 14.3 °C 7.2 °C 1009.4 hPa WSW 8 km/h 19.3 km/h 62% 0 mm
19:09 14.1 °C 6.9 °C 1009.4 hPa WSW 9.7 km/h 19.3 km/h 62% 0 mm
19:14 13.8 °C 6.9 °C 1009.4 hPa WSW 8 km/h 17.7 km/h 63% 0 mm
19:19 13.7 °C 7 °C 1009.4 hPa SW 6.4 km/h 16.1 km/h 64% 0 mm
19:24 13.4 °C 7 °C 1009 hPa SW 3.2 km/h 11.3 km/h 65% 0 mm
19:34 13.3 °C 7.1 °C 1009 hPa WSW 9.7 km/h 11.3 km/h 66% 0 mm
19:39 13.2 °C 7 °C 1009 hPa WSW 8 km/h 11.3 km/h 66% 0 mm
19:44 13.2 °C 7 °C 1009 hPa SW 6.4 km/h 9.7 km/h 66% 0 mm
19:49 13.3 °C 7.1 °C 1009.4 hPa WSW 1.6 km/h 8 km/h 66% 0 mm
19:54 13.2 °C 7 °C 1009.4 hPa SW 4.8 km/h 8 km/h 66% 0 mm
19:59 13.2 °C 7 °C 1009.4 hPa WSW 4.8 km/h 8 km/h 66% 0 mm
20:04 13.2 °C 7 °C 1009.4 hPa WSW 4.8 km/h 8 km/h 66% 0 mm
20:09 13.2 °C 6.9 °C 1009.4 hPa WSW 3.2 km/h 6.4 km/h 66% 0 mm
20:14 13.2 °C 7 °C 1009.4 hPa SW 3.2 km/h 9.7 km/h 66% 0 mm
20:19 13.2 °C 6.9 °C 1009 hPa WSW 1.6 km/h 8 km/h 66% 0 mm
20:24 13.2 °C 6.9 °C 1009.4 hPa Calm   6.4 km/h 66% 0 mm
20:29 13.2 °C 6.9 °C 1009 hPa WSW 3.2 km/h 8 km/h 66% 0 mm
20:34 13.1 °C 7.1 °C 1009.4 hPa WSW 3.2 km/h 8 km/h 67% 0 mm
20:39 13.1 °C 7.1 °C 1009.4 hPa SW 3.2 km/h 8 km/h 67% 0 mm
20:44 13.1 °C 7.1 °C 1009.4 hPa Calm   8 km/h 67% 0 mm
20:49 12.9 °C 6.9 °C 1009.4 hPa SW 1.6 km/h 6.4 km/h 67% 0 mm
20:54 12.9 °C 6.9 °C 1009.4 hPa SW 3.2 km/h 4.8 km/h 67% 0 mm
20:59 12.8 °C 6.8 °C 1009.4 hPa SW 1.6 km/h 4.8 km/h 67% 0 mm
21:04 12.7 °C 6.9 °C 1009.4 hPa SW 1.6 km/h 4.8 km/h 68% 0 mm
21:09 12.6 °C 6.8 °C 1009.4 hPa SW 1.6 km/h 4.8 km/h 68% 0 mm
21:14 12.6 °C 6.8 °C 1009.4 hPa Calm   3.2 km/h 68% 0 mm
21:19 12.5 °C 6.8 °C 1009.4 hPa Calm   4.8 km/h 68% 0 mm
21:24 12.4 °C 6.7 °C 1009.4 hPa SW 4.8 km/h 6.4 km/h 68% 0 mm
21:29 12.3 °C 6.8 °C 1009.4 hPa SSW 1.6 km/h 6.4 km/h 69% 0 mm
21:34 12.2 °C 6.7 °C 1009.4 hPa SW 3.2 km/h 6.4 km/h 69% 0 mm
21:39 12.1 °C 6.8 °C 1009.4 hPa SW 1.6 km/h 6.4 km/h 70% 0 mm
21:44 12 °C 6.9 °C 1009.4 hPa Calm   4.8 km/h 71% 0 mm
21:49 11.9 °C 6.8 °C 1009.4 hPa SW 1.6 km/h 6.4 km/h 71% 0 mm
21:54 11.8 °C 6.9 °C 1009.4 hPa SSW 3.2 km/h 8 km/h 72% 0 mm
21:59 11.7 °C 6.8 °C 1009.4 hPa Calm   4.8 km/h 72% 0 mm
22:04 11.6 °C 6.9 °C 1009.4 hPa SW 3.2 km/h 6.4 km/h 73% 0 mm
22:09 11.5 °C 6.8 °C 1009.4 hPa SW 1.6 km/h 6.4 km/h 73% 0 mm
22:14 11.4 °C 6.9 °C 1009.4 hPa WSW 4.8 km/h 4.8 km/h 74% 0 mm
22:19 11.3 °C 6.9 °C 1009 hPa WSW 3.2 km/h 4.8 km/h 74% 0 mm
22:24 11.3 °C 7.1 °C 1009 hPa WSW 1.6 km/h 4.8 km/h 75% 0 mm
22:29 11.3 °C 7 °C 1008.7 hPa SSW 3.2 km/h 8 km/h 75% 0 mm
22:34 11.2 °C 6.9 °C 1008.4 hPa SSW 3.2 km/h 9.7 km/h 75% 0 mm
22:39 11.1 °C 7.1 °C 1008.4 hPa South 4.8 km/h 11.3 km/h 76% 0 mm
22:44 11.1 °C 7.2 °C 1008 hPa South 4.8 km/h 11.3 km/h 77% 0 mm
22:49 11.2 °C 7.3 °C 1008.4 hPa SSW 4.8 km/h 11.3 km/h 77% 0 mm
22:54 11.2 °C 7.3 °C 1008.4 hPa SSW 1.6 km/h 8 km/h 77% 0 mm
22:59 11.2 °C 7.3 °C 1008.4 hPa Calm   6.4 km/h 77% 0 mm
23:04 11.2 °C 7.3 °C 1008.4 hPa Calm   4.8 km/h 77% 0 mm
23:09 11.2 °C 7.3 °C 1008.4 hPa Calm   4.8 km/h 77% 0 mm
23:14 11.2 °C 7.3 °C 1008.4 hPa SSW 1.6 km/h 4.8 km/h 77% 0 mm
23:19 11.1 °C 7.2 °C 1008.4 hPa Calm   3.2 km/h 77% 0 mm
23:24 11.1 °C 7 °C 1008.4 hPa Calm   3.2 km/h 76% 0 mm
23:29 11 °C 6.9 °C 1008.4 hPa Calm   1.6 km/h 76% 0 mm
23:34 10.8 °C 6.8 °C 1008.4 hPa Calm     76% 0 mm
23:39 10.7 °C 6.7 °C 1008.4 hPa Calm     76% 0 mm
23:44 10.6 °C 6.5 °C 1008.4 hPa Calm     76% 0 mm
23:49 10.4 °C 6.6 °C 1008.4 hPa Calm     77% 0 mm
23:54 10.3 °C 6.5 °C 1008.4 hPa Calm   3.2 km/h 77% 0 mm
23:59 10.2 °C 6.4 °C 1008.4 hPa Calm   3.2 km/h 77% 0 mm
Buffalo, New York, USA
Compliments of Weather Underground - 2.5 mb